リニア彗星

P/2015 TP200 ( LINEAR )

English version
Home page
Updated on August 28, 2018

---------------------------------------------------------------------

・ プロフィール

発見日 2015年10月10日
発見光度 19.7等
発見者 LINEAR survey (Space Surveillance Telescope, Atom Peak, White Sands Missile Range, NM, USA)

・ 写真集

・ 軌道要素

Epoch 2016 Oct. 19.0 TT = JDT 2457680.5
T 2016 Oct. 28.19912 TT                                 MPCW
q   3.3853041            (2000.0)            P               Q
n   0.04998930     Peri.   82.73471     +0.00646460     -0.99980756
a   7.2982377      Node     6.97564     +0.84672559     -0.00438087
e   0.5361477      Incl.    8.77231     +0.53199059     +0.01912205
P  19.72
From 651 observations 2015 Sept. 12-2018 Mar. 19, mean residual 0".5.

・ 光度変化

        m1 = 5.5 + 5 logΔ + 17.0 log r(t - 100)

---------------------------------------------------------------------

軌道要素はM.P.E.C. 2018-F152に掲載されたものです。
光度グラフはComet for Windowsで作成したものです。

---------------------------------------------------------------------

Copyright(C) Seiichi Yoshida (comet@aerith.net). All rights reserved.